Theta_e
324 321 319 318 317 316 315 315 314 314 314 314 315 314 313 313 315 313 311 311 312 311 311 312 312 312 307 297 297 309 311 316 313 312 308 308 306 305 300 306 307 307 307 310 311 311 311
325 322 320 318 317 316 316 315 314 314 314 315 315 314 312 312 313 314 312 311 312 312 312 312 312 311 303 291 305 309 308 310 310 309 307 308 307 308 303 305 305 307 305 308 310 310 310
326 324 321 318 317 316 315 315 315 314 314 315 315 314 313 312 311 313 313 312 312 312 312 312 311 308 300 296 306 310 308 307 310 308 304 308 311 306 306 302 309 305 300 302 306 309 307
327 325 322 319 317 316 314 314 314 314 314 314 314 313 313 312 311 311 312 313 312 312 312 310 310 305 296 305 309 306 308 305 309 310 307 308 310 310 306 307 306 301 300 293 303 307 308
328 326 323 320 317 316 315 314 314 314 314 314 313 313 312 311 311 311 311 312 313 312 312 310 306 302 294 306 302 307 307 302 306 308 308 309 309 305 306 300 296 300 292 294 297 304 306
330 327 324 320 318 316 315 314 314 313 312 312 312 312 311 311 310 310 310 312 311 310 309 307 305 297 299 294 300 304 307 305 302 304 302 301 302 300 300 297 287 290 291 295 296 300 304
329 328 324 320 318 316 315 314 313 313 312 312 312 311 310 310 309 311 309 307 300 298 301 297 298 297 299 300 303 300 305 303 303 299 290 295 293 292 296 298 297 296 294 294 299 303 302
330 328 324 320 318 316 314 314 313 313 312 311 311 310 309 309 309 310 308 300 300 302 295 301 301 301 303 303 294 299 306 297 296 292 293 292 291 297 299 299 297 296 294 294 298 302 301
330 328 324 321 317 316 314 313 313 312 311 310 310 309 309 309 309 308 304 300 307 305 296 297 300 300 299 303 296 298 302 300 295 292 292 290 295 299 298 296 295 295 293 293 294 299 302
329 327 324 320 317 315 314 313 312 311 310 310 309 308 309 308 304 306 301 304 308 306 290 291 294 298 302 302 295 304 305 300 296 292 295 293 299 297 296 294 296 291 297 297 296 296 290
329 327 323 320 317 315 313 312 311 310 310 309 309 307 309 307 306 302 304 307 307 303 280 293 296 305 302 297 297 299 308 301 294 294 295 292 295 295 294 295 298 294 299 297 297 294 293
328 326 323 319 316 314 312 312 310 310 309 309 308 308 308 306 307 306 307 307 304 287 279 288 296 294 294 296 297 300 300 304 301 295 296 295 300 299 297 299 298 299 296 295 295 292 285
327 325 321 318 315 313 312 311 309 309 308 308 308 308 307 308 302 309 308 302 286 284 290 288 290 294 293 291 293 295 294 293 291 285 286 293 294 299 300 295 298 297 293 285 283 284 283
326 324 321 318 315 313 312 310 309 308 307 307 307 308 307 308 310 308 305 293 283 287 289 295 294 294 290 292 292 293 293 291 294 291 289 287 284 295 298 296 292 294 292 286 279 281 284
325 322 319 317 314 312 311 310 308 308 306 306 308 308 307 308 309 308 297 286 288 290 294 292 293 290 290 292 292 291 291 292 294 293 289 288 286 296 297 298 298 293 290 294 287 288 285
324 322 318 316 313 312 311 309 308 307 306 307 305 305 304 309 308 304 292 288 290 294 296 295 289 292 287 291 289 289 290 295 294 298 298 293 285 293 295 299 298 296 297 287 289 280 279
318 321 318 315 313 311 310 309 308 307 306 307 305 298 305 308 306 297 288 291 293 297 298 294 291 291 291 290 291 290 290 294 297 296 297 296 291 289 295 293 292 293 291 292 292 289 283
316 320 317 314 312 310 309 308 308 307 306 304 303 293 305 306 294 295 291 293 296 297 298 296 296 294 293 293 291 291 290 293 299 297 292 295 292 285 289 296 298 296 293 292 286 284 287
313 319 316 313 311 309 308 307 307 307 307 305 299 296 304 302 287 289 295 294 296 295 295 294 294 295 296 293 290 293 293 297 300 297 294 295 291 283 285 290 294 292 294 294 293 292 286
315 318 315 312 310 308 307 307 307 307 306 305 300 290 296 297 298 293 292 293 293 298 296 295 294 296 294 293 294 292 293 296 299 298 298 298 292 289 285 288 292 288 291 293 292 286 287
311 316 314 312 309 308 307 307 306 306 305 304 300 296 297 289 291 293 295 294 292 291 296 296 293 294 293 290 292 291 294 295 298 298 297 296 289 288 289 291 291 290 290 291 289 290 286
311 315 313 311 308 307 307 306 306 304 307 301 295 294 296 296 295 293 293 293 292 293 294 292 291 293 294 291 293 291 294 295 293 296 296 296 288 288 286 289 289 288 291 292 291 291 290
311 314 312 310 308 307 306 306 304 307 305 299 297 297 298 293 294 293 293 294 293 296 296 297 295 294 292 294 296 297 299 298 298 296 294 294 290 287 284 287 286 283 288 290 291 293 293
314 313 311 309 307 307 306 306 304 307 303 299 298 298 294 289 292 293 292 293 294 294 294 297 298 295 297 301 299 299 298 297 297 296 298 293 291 290 285 284 278 287 291 291 290 292 293
307 311 310 308 307 306 306 304 303 306 301 298 297 296 295 289 292 290 290 292 293 295 295 296 297 298 301 297 293 290 290 291 292 294 294 296 292 287 284 283 287 288 289 290 288 290 295
309 311 309 307 306 306 305 304 303 303 301 298 297 297 295 291 289 291 290 292 292 293 294 294 297 301 300 295 292 284 283 287 286 288 293 293 294 288 285 280 278 289 293 296 295 286 296
312 310 308 307 306 306 304 303 302 301 300 299 296 297 297 289 289 289 289 290 290 291 293 294 293 296 299 293 288 286 285 289 284 284 285 287 288 285 284 282 286 292 293 296 284 287 296
310 309 308 307 306 306 305 303 302 301 301 300 295 298 297 290 289 291 291 289 288 290 291 289 293 293 292 288 288 289 287 288 287 289 288 286 284 284 286 282 279 295 293 289 293 297 297
309 308 307 307 306 305 305 304 303 301 300 301 294 297 299 293 289 293 292 293 292 291 291 292 290 289 289 288 291 292 288 289 288 283 291 285 290 287 288 287 294 296 295 297 297 296 296
Wind_Speed
12 11 10 9 10 10 10 11 10 10 13 14 13 13 14 15 13 10 10 11 11 11 11 11 10 11 10 6 5 7 8 7 8 7 5 5 16 20 23 17 15 12 20 12 12 13 13
14 12 11 11 9 10 10 12 10 11 12 13 14 13 11 13 15 11 9 11 12 12 12 12 11 9 9 8 6 6 7 3 8 2 3 4 10 20 16 15 20 7 1 8 15 15 14
17 12 13 12 10 10 11 11 12 12 12 13 15 14 12 12 14 14 11 11 13 13 11 12 7 7 9 8 3 6 6 3 5 7 3 4 13 13 14 15 13 15 7 7 9 20 10
19 15 14 13 12 10 10 11 13 12 13 13 14 15 13 12 13 14 13 13 13 13 11 6 5 5 7 5 9 4 5 4 3 8 6 8 12 15 10 7 13 12 7 10 14 13 4
20 16 14 13 13 11 10 11 14 11 14 13 14 15 13 13 13 15 13 14 15 13 8 5 8 5 5 5 5 7 4 6 10 5 4 9 9 5 5 17 12 18 9 18 6 10 4
19 18 15 13 14 11 11 12 13 13 12 13 14 14 12 14 13 15 13 15 12 8 7 6 6 7 4 3 6 6 1 3 5 10 6 3 2 7 13 16 16 14 12 19 13 13 17
16 18 16 14 14 13 11 12 12 13 13 13 13 12 13 13 13 14 10 5 5 7 6 5 8 8 10 3 2 7 6 7 7 4 2 4 2 13 20 20 12 17 18 19 19 15 17
19 18 17 16 15 13 11 12 11 13 13 12 12 12 12 12 12 10 6 5 4 5 6 3 6 7 7 3 3 4 6 11 9 5 8 3 5 15 12 9 6 16 16 10 6 12 10
19 18 19 17 14 14 11 12 11 12 11 12 12 11 12 12 10 5 5 2 1 4 5 3 4 7 2 7 6 9 5 8 10 8 12 2 6 11 12 10 10 11 13 12 11 8 14
18 20 20 19 16 14 11 12 11 11 10 11 11 11 11 8 5 1 3 3 2 4 3 5 2 3 2 1 6 2 2 6 2 10 9 4 10 11 13 12 13 13 10 8 8 13 8
18 22 21 19 17 14 12 11 10 10 9 9 12 12 9 5 5 3 4 3 3 4 1 3 3 3 2 8 2 5 4 3 6 9 4 3 9 14 12 9 8 6 5 9 7 9 5
18 21 20 20 17 15 12 11 9 9 8 9 11 11 4 3 5 2 4 2 4 3 2 1 1 2 4 8 4 3 2 8 4 7 6 4 6 1 6 8 5 9 11 6 5 6 5
19 21 22 21 19 16 13 11 9 8 6 7 10 2 7 3 2 5 3 4 2 3 1 3 4 3 5 4 3 1 4 7 5 6 2 5 3 5 4 8 6 10 15 6 5 4 5
20 23 23 22 20 17 15 12 8 6 3 4 1 4 2 1 2 2 3 2 4 2 3 3 6 7 3 2 3 1 8 6 5 6 4 3 4 8 2 8 5 10 14 4 7 7 9
23 23 24 23 22 19 16 13 9 6 1 2 7 3 3 4 3 2 2 3 2 3 4 9 7 3 4 6 2 2 2 5 6 9 1 6 4 3 2 4 5 7 5 5 4 3 2
24 25 25 25 23 20 18 14 10 6 4 8 4 4 3 5 2 3 2 3 1 1 1 5 3 3 4 8 5 4 4 5 8 8 4 2 5 1 3 5 1 3 6 3 1 2 4
32 26 27 27 24 21 19 15 12 8 5 10 5 4 4 4 2 3 2 2 1 4 2 3 2 5 5 5 6 5 6 2 5 9 4 6 5 6 6 7 10 5 3 5 4 2 4
38 28 28 27 24 21 19 16 14 10 10 7 4 3 4 3 3 1 3 2 1 5 4 2 3 3 3 7 4 3 6 5 5 8 5 0 6 4 11 3 4 8 12 11 8 5 5
43 27 28 27 25 23 20 18 16 15 18 5 3 3 3 1 3 3 3 3 2 4 4 3 2 2 1 5 3 5 6 2 5 5 8 6 6 5 3 4 5 7 11 10 12 4 5
37 29 28 28 25 23 21 19 17 16 17 4 5 4 3 3 5 4 5 6 6 2 3 1 1 3 5 5 1 6 6 4 3 3 5 3 4 4 4 3 4 12 16 17 13 3 9
33 30 29 29 26 24 22 20 17 15 18 6 4 4 5 5 7 9 4 2 7 6 3 3 3 4 3 4 4 5 5 10 6 6 5 5 3 1 1 3 2 3 10 16 16 17 14
33 30 30 30 27 24 22 19 17 17 19 4 4 4 4 3 3 11 6 9 8 5 5 6 3 3 3 2 3 7 8 8 5 8 5 3 1 1 1 1 3 7 9 11 16 18 19
34 31 31 30 27 25 22 20 17 22 18 4 2 1 4 6 8 9 9 6 7 4 3 5 2 3 5 5 4 4 4 2 3 7 9 6 5 4 3 2 4 9 14 14 11 14 11
11 27 32 31 28 24 22 20 19 24 14 1 3 4 4 5 8 9 5 5 6 3 3 5 1 3 4 3 2 4 4 3 5 3 5 6 6 3 1 2 5 4 2 2 6 9 9
30 27 33 31 28 24 21 19 18 24 15 2 3 3 4 4 7 5 7 7 5 4 3 5 5 4 2 3 4 6 4 4 3 2 5 5 6 3 3 6 7 6 2 3 4 4 1
34 32 32 30 29 25 22 19 17 19 16 4 3 1 2 6 4 3 8 5 6 7 5 3 4 3 2 4 4 5 5 5 6 4 2 5 6 5 3 4 4 8 6 2 2 5 4
31 31 32 30 27 24 22 20 19 19 16 5 4 1 1 5 4 1 3 5 1 1 2 4 2 2 5 4 4 4 4 2 5 6 6 4 5 9 7 5 5 6 6 3 5 4 4
23 31 30 30 27 24 22 21 19 16 16 2 5 1 2 5 6 4 3 3 4 2 4 4 5 2 2 2 3 4 3 5 3 2 6 8 6 5 5 4 6 6 5 4 6 4 7
24 30 30 28 27 24 22 20 19 18 13 5 5 3 6 6 7 9 10 8 7 5 1 2 4 3 2 1 3 3 3 2 5 3 3 4 2 1 3 1 5 4 5 6 7 7 9
Wind_Direction
275 281 285 290 303 311 319 322 341 330 330 332 333 334 337 332 328 320 324 314 312 313 317 317 320 331 313 260 281 58 359 42 105 131 236 243 206 205 207 210 206 222 192 185 191 189 165
272 273 275 279 286 301 308 312 318 324 322 327 326 330 333 329 320 319 313 306 307 311 310 313 308 315 297 277 48 17 350 66 111 301 287 300 223 213 212 201 207 181 56 237 195 203 177
264 259 265 270 276 287 301 307 310 314 320 325 325 331 332 325 321 319 314 304 302 306 315 323 309 277 283 280 10 6 349 34 155 201 290 333 319 265 221 178 199 171 201 328 241 242 192
253 250 255 264 271 279 290 299 300 312 317 323 323 328 332 327 322 317 311 308 297 295 296 301 300 283 279 25 329 274 327 147 70 94 275 323 306 269 227 144 162 162 176 213 248 200 168
240 244 248 252 262 268 278 288 296 310 314 324 324 328 333 326 320 315 305 300 298 290 268 265 252 270 283 329 282 17 304 254 156 117 205 279 278 198 185 162 176 178 163 209 173 286 178
225 235 237 239 254 259 270 281 291 306 315 325 325 330 336 326 323 314 304 297 296 267 223 236 250 270 178 237 285 326 286 266 171 172 149 227 276 183 181 183 186 178 194 199 204 199 233
221 234 229 232 241 253 260 272 288 300 310 322 324 331 330 324 319 317 309 280 214 198 223 304 321 296 313 161 284 207 179 185 184 166 105 15 155 183 182 192 197 185 195 207 183 179 198
242 228 222 228 237 244 253 265 280 298 309 323 324 331 322 318 318 316 281 278 28 352 298 229 291 294 31 196 113 183 205 187 158 127 110 38 189 188 178 173 242 182 192 206 142 142 206
257 221 216 224 229 240 247 261 276 290 310 316 319 327 321 310 320 257 253 324 358 315 261 88 359 349 308 346 93 110 215 130 99 131 114 55 139 188 163 159 183 175 182 185 177 177 212
254 219 213 216 220 230 240 255 272 288 306 316 317 325 310 310 277 126 213 139 264 311 278 31 55 34 316 247 75 318 235 104 145 108 88 26 178 162 156 176 186 172 184 166 139 176 206
260 220 208 208 216 219 229 246 264 283 302 312 318 314 298 241 336 230 66 164 264 242 253 11 45 10 326 89 201 34 335 157 121 125 86 131 192 175 169 160 200 110 160 154 183 226 318
253 219 205 201 209 213 217 236 254 275 303 322 326 307 217 165 244 50 151 202 244 245 122 115 70 62 90 47 61 116 101 69 59 128 4 70 344 188 128 94 34 138 147 136 201 235 243
247 215 203 200 200 206 209 220 242 266 302 338 329 251 182 170 13 137 169 226 248 289 163 158 132 164 63 120 96 69 171 143 151 130 283 125 125 120 277 136 144 174 160 151 180 193 246
237 210 203 197 195 199 203 209 224 253 296 354 238 183 149 35 159 147 242 214 257 156 185 160 134 104 88 183 72 47 164 134 112 81 128 156 160 185 8 198 182 211 198 172 205 197 188
242 203 201 195 192 194 198 199 202 228 196 116 183 182 161 102 138 273 256 216 95 151 156 150 151 157 128 150 168 144 250 144 128 208 241 160 84 113 51 327 291 174 222 12 341 46 341
243 199 197 194 188 191 193 190 188 200 180 174 190 177 137 122 204 253 273 313 149 208 153 182 192 198 148 140 145 217 201 148 146 216 256 99 113 18 83 289 146 292 161 184 272 234 218
285 194 192 194 185 186 189 182 181 182 179 186 198 185 111 115 233 238 260 286 251 184 239 256 138 152 119 132 147 174 175 179 210 179 243 185 127 155 158 220 186 168 196 235 275 253 302
305 191 191 191 182 182 185 177 175 169 159 173 185 175 121 153 240 223 214 208 356 174 198 252 287 16 137 138 170 164 168 269 190 170 190 244 101 155 196 57 319 286 239 219 226 191 241
308 186 185 183 180 179 183 178 173 169 186 160 156 127 119 234 232 206 222 223 261 210 203 191 173 300 193 159 135 124 132 136 174 184 177 172 151 132 142 265 222 233 222 236 239 292 209
296 178 180 178 179 180 181 178 175 180 194 243 164 143 137 206 288 256 214 190 174 218 250 254 121 192 174 160 97 140 129 140 194 222 354 270 196 258 222 61 193 204 218 221 229 196 235
317 173 178 174 178 183 180 177 176 185 187 223 215 173 161 180 216 214 219 178 176 173 238 227 189 242 203 152 145 130 113 135 175 152 204 252 221 116 74 54 86 223 232 224 220 229 242
319 180 176 171 175 185 179 175 176 177 165 239 175 172 182 130 183 193 185 196 203 141 182 177 260 172 199 267 16 172 159 175 184 188 205 187 147 112 273 300 262 258 245 229 232 236 241
284 177 171 172 171 185 176 174 173 169 181 198 127 100 264 144 173 198 190 178 184 178 85 70 107 184 194 60 339 1 37 283 147 192 191 184 150 181 204 189 262 259 241 226 232 234 250
192 182 168 172 168 179 175 172 177 178 199 109 163 160 217 165 197 200 151 164 166 147 126 104 106 211 50 291 288 138 96 114 136 120 194 187 184 162 110 215 231 87 97 11 258 246 259
281 241 165 170 166 171 172 173 177 183 184 141 153 205 216 139 182 160 170 155 147 153 107 109 74 26 325 216 171 160 160 162 151 170 192 227 180 180 228 218 298 182 172 170 210 154 99
292 174 169 165 163 166 171 161 162 172 168 154 147 307 272 147 161 96 156 178 170 185 148 98 89 353 237 227 214 211 206 182 170 156 211 236 262 240 191 268 263 90 134 181 230 181 78
171 167 165 164 161 162 161 152 147 151 161 155 115 302 210 108 77 257 153 157 81 233 142 132 82 106 349 204 231 229 192 347 198 191 174 193 230 227 223 259 303 109 148 174 235 86 13
182 164 161 161 158 162 158 158 151 147 143 130 97 23 0 89 76 49 23 124 142 256 206 114 170 133 99 237 222 206 253 185 237 73 168 186 199 204 223 230 251 111 116 248 23 32 9
234 166 160 159 155 158 159 159 155 152 148 134 107 97 56 66 86 94 71 48 35 26 5 39 65 88 93 144 264 307 201 180 258 196 180 236 336 296 234 96 84 84 47 67 26 1 352